| time (UTC) | temp C | wind direction | speed KPH | gust KPH | rain 1hr cm | rain 24hr cm | rain mn cm | humidity % | barometer mb |
| 20260902153539 | 12 | 292 | 17.7 | 30.6 | 0.00 | 0.00 | 0.00 | 89 | 1014.3 |
| 20260902153059 | 12 | 250 | 17.7 | 25.7 | 0.00 | 0.00 | 0.00 | 89 | 1014.3 |
| 20260902152539 | 12 | 265 | 16.1 | 24.1 | 0.00 | 0.00 | 0.00 | 89 | 1014.2 |
| 20260902152039 | 12 | 265 | 12.9 | 25.7 | 0.00 | 0.00 | 0.00 | 89 | 1014.3 |
| 20260902151555 | 12 | 263 | 12.9 | 25.7 | 0.00 | 0.00 | 0.00 | 89 | 1014.3 |
| 20260902151036 | 12 | 286 | 14.5 | 25.7 | 0.00 | 0.00 | 0.00 | 89 | 1014.4 |
| 20260902150539 | 12 | 236 | 12.9 | 24.1 | 0.00 | 0.00 | 0.00 | 89 | 1014.3 |
| 20260902150051 | 12 | 248 | 12.9 | 25.7 | 0.00 | 0.00 | 0.00 | 89 | 1014.3 |
| 20260902145539 | 12 | 259 | 11.3 | 32.2 | 0.00 | 0.00 | 0.00 | 89 | 1014.3 |
| 20260902145035 | 12 | 255 | 17.7 | 32.2 | 0.00 | 0.00 | 0.00 | 89 | 1014.3 |
| 20260902144558 | 12 | 305 | 22.5 | 32.2 | 0.00 | 0.00 | 0.00 | 89 | 1014.2 |
| 20260902144036 | 12 | 292 | 20.9 | 32.2 | 0.00 | 0.00 | 0.00 | 89 | 1014.2 |
| 20260902143539 | 12 | 273 | 19.3 | 32.2 | 0.00 | 0.00 | 0.00 | 89 | 1014.2 |
| 20260902143058 | 12 | 269 | 20.9 | 32.2 | 0.00 | 0.00 | 0.00 | 89 | 1014.3 |
| 20260902142536 | 12 | 269 | 17.7 | 27.4 | 0.00 | 0.00 | 0.00 | 89 | 1014.4 |
| 20260902142036 | 12 | 263 | 17.7 | 25.7 | 0.00 | 0.00 | 0.00 | 89 | 1014.6 |
| 20260902141550 | 12 | 261 | 16.1 | 22.5 | 0.00 | 0.00 | 0.00 | 89 | 1014.7 |
| 20260902141038 | 12 | 249 | 11.3 | 27.4 | 0.00 | 0.00 | 0.00 | 89 | 1014.7 |
| 20260902140540 | 12 | 279 | 12.9 | 27.4 | 0.00 | 0.00 | 0.00 | 89 | 1014.8 |
| 20260902140048 | 12 | 279 | 16.1 | 27.4 | 0.00 | 0.00 | 0.00 | 89 | 1014.6 |
| 20260902135535 | 12 | 279 | 16.1 | 29.0 | 0.00 | 0.00 | 0.00 | 89 | 1014.5 |
| 20260902135036 | 12 | 291 | 16.1 | 30.6 | 0.00 | 0.00 | 0.00 | 89 | 1014.5 |
| 20260902134547 | 12 | 289 | 19.3 | 33.8 | 0.00 | 0.00 | 0.00 | 89 | 1014.5 |
| 20260902134038 | 12 | 283 | 19.3 | 37.0 | 0.00 | 0.00 | 0.00 | 89 | 1014.3 |
| 20260902133536 | 12 | 283 | 22.5 | 37.0 | 0.00 | 0.00 | 0.00 | 89 | 1014.4 |
| 20260902133102 | 12 | 288 | 20.9 | 38.6 | 0.00 | 0.00 | 0.00 | 89 | 1014.3 |
| 20260902132536 | 12 | 309 | 20.9 | 38.6 | 0.00 | 0.00 | 0.00 | 89 | 1014.1 |
| 20260902132036 | 12 | 270 | 22.5 | 38.6 | 0.00 | 0.00 | 0.00 | 89 | 1014.0 |
| 20260902131552 | 12 | 279 | 12.9 | 25.7 | 0.00 | 0.00 | 0.00 | 89 | 1014.2 |
| 20260902131044 | 12 | 259 | 12.9 | 30.6 | 0.00 | 0.00 | 0.00 | 89 | 1014.3 |
| 20260902130541 | 12 | 277 | 17.7 | 33.8 | 0.00 | 0.00 | 0.00 | 90 | 1014.0 |
| 20260902130058 | 12 | 270 | 16.1 | 33.8 | 0.00 | 0.00 | 0.00 | 90 | 1013.8 |
| 20260902125540 | 12 | 279 | 17.7 | 30.6 | 0.00 | 0.00 | 0.00 | 90 | 1013.6 |
| 20260902125039 | 12 | 299 | 19.3 | 30.6 | 0.00 | 0.00 | 0.00 | 90 | 1013.6 |
| 20260902124605 | 12 | 241 | 16.1 | 29.0 | 0.00 | 0.00 | 0.00 | 90 | 1013.7 |
| 20260902124038 | 12 | 278 | 16.1 | 30.6 | 0.00 | 0.00 | 0.00 | 90 | 1013.7 |
| 20260902123538 | 12 | 262 | 16.1 | 30.6 | 0.00 | 0.00 | 0.00 | 90 | 1013.7 |
| 20260902123053 | 12 | 273 | 14.5 | 24.1 | 0.00 | 0.00 | 0.00 | 90 | 1013.8 |
| 20260902122539 | 12 | 264 | 14.5 | 24.1 | 0.00 | 0.00 | 0.00 | 90 | 1014.0 |
| 20260902122039 | 12 | 268 | 12.9 | 22.5 | 0.00 | 0.00 | 0.00 | 91 | 1014.0 |
| 20260902121550 | 12 | 240 | 9.7 | 20.9 | 0.00 | 0.00 | 0.00 | 91 | 1014.1 |
| 20260902121039 | 12 | 274 | 9.7 | 20.9 | 0.00 | 0.00 | 0.00 | 91 | 1014.1 |
| 20260902120539 | 12 | 293 | 11.3 | 20.9 | 0.00 | 0.00 | 0.00 | 90 | 1014.3 |
| 20260902120059 | 12 | 295 | 11.3 | 22.5 | 0.00 | 0.00 | 0.00 | 90 | 1014.3 |
| 20260902115538 | 12 | 315 | 12.9 | 24.1 | 0.00 | 0.00 | 0.00 | 90 | 1014.3 |
| 20260902115040 | 12 | 271 | 12.9 | 24.1 | 0.00 | 0.00 | 0.00 | 90 | 1014.4 |
| 20260902114557 | 12 | 268 | 12.9 | 25.7 | 0.00 | 0.00 | 0.00 | 90 | 1014.4 |
| 20260902114038 | 12 | 273 | 14.5 | 27.4 | 0.00 | 0.00 | 0.00 | 90 | 1014.3 |
| 20260902113538 | 12 | 284 | 17.7 | 41.8 | 0.00 | 0.00 | 0.00 | 90 | 1014.2 |
| 20260902113055 | 12 | 252 | 17.7 | 41.8 | 0.00 | 0.00 | 0.00 | 90 | 1014.2 |
| 20260902112541 | 12 | 339 | 25.7 | 41.8 | 0.00 | 0.00 | 0.00 | 90 | 1014.1 |
| 20260902112037 | 12 | 273 | 14.5 | 30.6 | 0.00 | 0.00 | 0.00 | 90 | 1013.9 |
| 20260902111559 | 12 | 273 | 16.1 | 27.4 | 0.00 | 0.00 | 0.00 | 90 | 1014.1 |
| 20260902111040 | 12 | 286 | 14.5 | 32.2 | 0.00 | 0.00 | 0.00 | 89 | 1014.1 |
| 20260902110540 | 12 | 290 | 17.7 | 32.2 | 0.00 | 0.00 | 0.00 | 89 | 1014.2 |
| 20260902110046 | 12 | 275 | 16.1 | 32.2 | 0.00 | 0.00 | 0.00 | 89 | 1014.1 |
| 20260902105538 | 12 | 272 | 14.5 | 29.0 | 0.00 | 0.00 | 0.00 | 89 | 1014.3 |
| 20260902105043 | 12 | 272 | 14.5 | 24.1 | 0.00 | 0.00 | 0.00 | 89 | 1014.4 |
| 20260902104557 | 12 | 308 | 16.1 | 24.1 | 0.00 | 0.00 | 0.00 | 89 | 1014.4 |
| 20260902104038 | 12 | 280 | 12.9 | 24.1 | 0.00 | 0.00 | 0.00 | 90 | 1014.4 |
| 20260902103541 | 12 | 276 | 12.9 | 20.9 | 0.00 | 0.00 | 0.00 | 90 | 1014.4 |
| 20260902103100 | 12 | 291 | 11.3 | 20.9 | 0.00 | 0.00 | 0.00 | 90 | 1014.5 |
| 20260902102539 | 12 | 274 | 11.3 | 22.5 | 0.00 | 0.00 | 0.00 | 90 | 1014.6 |
| 20260902102040 | 12 | 267 | 12.9 | 22.5 | 0.00 | 0.00 | 0.00 | 91 | 1014.9 |
| 20260902101556 | 12 | 269 | 11.3 | 22.5 | 0.00 | 0.00 | 0.00 | 91 | 1015.0 |
| 20260902101039 | 12 | 308 | 9.7 | 17.7 | 0.00 | 0.00 | 0.00 | 91 | 1015.0 |
| 20260902100539 | 12 | 281 | 6.4 | 17.7 | 0.00 | 0.00 | 0.00 | 91 | 1015.0 |
| 20260902100048 | 12 | 290 | 4.8 | 11.3 | 0.00 | 0.00 | 0.00 | 91 | 1015.0 |
| 20260902095539 | 12 | 261 | 4.8 | 12.9 | 0.00 | 0.00 | 0.00 | 90 | 1014.8 |
| 20260902095038 | 12 | 270 | 4.8 | 12.9 | 0.00 | 0.00 | 0.00 | 90 | 1014.9 |
| 20260902094557 | 12 | 271 | 8.0 | 17.7 | 0.00 | 0.00 | 0.00 | 90 | 1014.8 |
| 20260902094036 | 12 | 296 | 6.4 | 17.7 | 0.00 | 0.00 | 0.00 | 90 | 1014.7 |
| 20260902093536 | 12 | 303 | 8.0 | 17.7 | 0.00 | 0.00 | 0.00 | 91 | 1015.1 |
| 20260902093125 | 12 | 263 | 4.8 | 12.9 | 0.00 | 0.00 | 0.00 | 91 | 1015.1 |
| 20260902092539 | 12 | 270 | 4.8 | 12.9 | 0.00 | 0.00 | 0.00 | 91 | 1015.1 |
| 20260902092041 | 12 | 252 | 6.4 | 14.5 | 0.00 | 0.00 | 0.00 | 91 | 1015.1 |
| 20260902091600 | 12 | 53 | 4.8 | 14.5 | 0.00 | 0.00 | 0.00 | 91 | 1015.0 |
| 20260902091040 | 12 | 264 | 4.8 | 12.9 | 0.00 | 0.00 | 0.00 | 91 | 1014.8 |
| 20260902090539 | 11 | 281 | 3.2 | 6.4 | 0.00 | 0.00 | 0.00 | 91 | 1014.7 |
| 20260902090101 | 12 | 290 | 1.6 | 6.4 | 0.00 | 0.00 | 0.00 | 91 | 1015.0 |
| 20260902085538 | 12 | 277 | 3.2 | 9.7 | 0.00 | 0.00 | 0.00 | 90 | 1015.1 |
| 20260902085038 | 12 | 273 | 4.8 | 9.7 | 0.00 | 0.00 | 0.00 | 90 | 1015.3 |
| 20260902084559 | 12 | 273 | 3.2 | 9.7 | 0.00 | 0.00 | 0.00 | 90 | 1015.1 |
| 20260902084039 | 12 | 254 | 3.2 | 14.5 | 0.00 | 0.00 | 0.00 | 90 | 1015.1 |
| 20260902083535 | 12 | 260 | 3.2 | 14.5 | 0.00 | 0.00 | 0.00 | 89 | 1015.0 |
| 20260902083056 | 12 | 279 | 4.8 | 14.5 | 0.00 | 0.00 | 0.00 | 89 | 1015.1 |
| 20260902082535 | 12 | 277 | 6.4 | 14.5 | 0.00 | 0.00 | 0.00 | 89 | 1015.2 |
| 20260902082038 | 12 | 261 | 8.0 | 14.5 | 0.00 | 0.00 | 0.00 | 88 | 1015.2 |
| 20260902081610 | 12 | 268 | 3.2 | 29.0 | 0.00 | 0.00 | 0.00 | 88 | 1015.1 |
| 20260902081039 | 12 | 272 | 12.9 | 30.6 | 0.00 | 0.00 | 0.00 | 87 | 1015.1 |
| 20260902080539 | 12 | 298 | 20.9 | 30.6 | 0.00 | 0.00 | 0.00 | 87 | 1015.0 |
| 20260902080049 | 12 | 254 | 17.7 | 30.6 | 0.00 | 0.00 | 0.00 | 88 | 1015.0 |
| 20260902075538 | 12 | 302 | 17.7 | 30.6 | 0.00 | 0.00 | 0.00 | 88 | 1014.8 |
| 20260902075039 | 12 | 330 | 14.5 | 25.7 | 0.00 | 0.00 | 0.00 | 87 | 1014.8 |
| 20260902074559 | 12 | 288 | 14.5 | 25.7 | 0.00 | 0.00 | 0.00 | 87 | 1014.8 |
| 20260902074039 | 12 | 277 | 11.3 | 22.5 | 0.00 | 0.00 | 0.00 | 87 | 1014.7 |
| 20260902073538 | 12 | 279 | 11.3 | 22.5 | 0.00 | 0.00 | 0.00 | 87 | 1014.9 |
| 20260902073055 | 12 | 296 | 12.9 | 22.5 | 0.00 | 0.00 | 0.00 | 87 | 1014.8 |
| 20260902072539 | 12 | 275 | 16.1 | 25.7 | 0.00 | 0.00 | 0.00 | 86 | 1014.9 |
| 20260902072035 | 12 | 313 | 14.5 | 25.7 | 0.00 | 0.00 | 0.00 | 86 | 1015.0 |
| 20260902071601 | 12 | 294 | 14.5 | 25.7 | 0.00 | 0.00 | 0.00 | 86 | 1014.9 |
| 20260902071038 | 12 | 298 | 12.9 | 25.7 | 0.00 | 0.00 | 0.00 | 86 | 1015.0 |
| 20260902070538 | 12 | 267 | 14.5 | 27.4 | 0.00 | 0.00 | 0.00 | 86 | 1015.0 |
| 20260902070051 | 12 | 268 | 9.7 | 27.4 | 0.00 | 0.00 | 0.00 | 86 | 1015.0 |
| 20260902065539 | 12 | 282 | 12.9 | 27.4 | 0.00 | 0.00 | 0.00 | 86 | 1015.0 |
| 20260902065039 | 12 | 257 | 14.5 | 27.4 | 0.00 | 0.00 | 0.00 | 86 | 1014.8 |
| 20260902064558 | 12 | 280 | 16.1 | 33.8 | 0.00 | 0.00 | 0.00 | 86 | 1014.8 |
| 20260902064039 | 12 | 273 | 17.7 | 33.8 | 0.00 | 0.00 | 0.00 | 87 | 1014.8 |
| 20260902063538 | 12 | 269 | 19.3 | 29.0 | 0.00 | 0.00 | 0.00 | 87 | 1014.9 |
| 20260902063058 | 12 | 290 | 14.5 | 27.4 | 0.00 | 0.00 | 0.00 | 88 | 1014.8 |
| 20260902062541 | 12 | 263 | 19.3 | 33.8 | 0.00 | 0.00 | 0.00 | 88 | 1014.7 |
| 20260902062038 | 12 | 284 | 20.9 | 33.8 | 0.00 | 0.00 | 0.00 | 88 | 1014.5 |
| 20260902061554 | 12 | 296 | 20.9 | 43.5 | 0.00 | 0.00 | 0.00 | 88 | 1014.5 |
| 20260902061038 | 12 | 247 | 24.1 | 43.5 | 0.00 | 0.00 | 0.00 | 88 | 1014.3 |
| 20260902060537 | 12 | 293 | 19.3 | 38.6 | 0.00 | 0.00 | 0.00 | 88 | 1014.0 |
| 20260902060056 | 12 | 269 | 20.9 | 37.0 | 0.00 | 0.00 | 0.00 | 87 | 1014.0 |
| 20260902055538 | 12 | 317 | 14.5 | 30.6 | 0.00 | 0.00 | 0.00 | 87 | 1014.0 |
| 20260902055039 | 12 | 236 | 14.5 | 30.6 | 0.00 | 0.00 | 0.00 | 87 | 1014.2 |
| 20260902054559 | 12 | 260 | 14.5 | 38.6 | 0.00 | 0.00 | 0.00 | 87 | 1014.1 |
| 20260902054035 | 12 | 240 | 16.1 | 38.6 | 0.00 | 0.00 | 0.00 | 86 | 1014.2 |
| 20260902053538 | 12 | 300 | 14.5 | 37.0 | 0.00 | 0.00 | 0.00 | 86 | 1014.1 |
| 20260902053057 | 12 | 271 | 19.3 | 40.2 | 0.00 | 0.00 | 0.00 | 86 | 1014.0 |
| 20260902052543 | 13 | 277 | 22.5 | 41.8 | 0.00 | 0.00 | 0.00 | 86 | 1014.0 |
| 20260902052039 | 13 | 292 | 24.1 | 41.8 | 0.00 | 0.00 | 0.00 | 85 | 1014.0 |
| 20260902051554 | 13 | 250 | 20.9 | 41.8 | 0.00 | 0.00 | 0.00 | 84 | 1013.8 |
| 20260902051039 | 13 | 303 | 22.5 | 53.1 | 0.00 | 0.00 | 0.00 | 84 | 1013.8 |
| 20260902050538 | 13 | 234 | 24.1 | 53.1 | 0.00 | 0.00 | 0.00 | 84 | 1013.6 |
| 20260902050112 | 13 | 288 | 27.4 | 43.5 | 0.00 | 0.00 | 0.00 | 83 | 1013.5 |
| 20260902045538 | 13 | 265 | 22.5 | 41.8 | 0.00 | 0.00 | 0.00 | 82 | 1013.6 |
| 20260902045038 | 13 | 298 | 17.7 | 41.8 | 0.00 | 0.00 | 0.00 | 82 | 1013.7 |
| 20260902044609 | 13 | 336 | 20.9 | 37.0 | 0.00 | 0.00 | 0.00 | 82 | 1013.6 |
| 20260902044041 | 13 | 252 | 20.9 | 35.4 | 0.00 | 0.00 | 0.00 | 82 | 1013.8 |
| 20260902043540 | 13 | 246 | 19.3 | 37.0 | 0.00 | 0.00 | 0.00 | 81 | 1013.6 |
| 20260902043056 | 13 | 286 | 14.5 | 38.6 | 0.00 | 0.00 | 0.00 | 81 | 1013.8 |
| 20260902042540 | 13 | 314 | 19.3 | 38.6 | 0.00 | 0.00 | 0.00 | 81 | 1013.8 |
| 20260902042041 | 13 | 314 | 14.5 | 41.8 | 0.00 | 0.00 | 0.00 | 82 | 1014.0 |
| 20260902041552 | 13 | 294 | 20.9 | 41.8 | 0.00 | 0.00 | 0.00 | 83 | 1014.3 |
| 20260902041040 | 13 | 309 | 24.1 | 40.2 | 0.00 | 0.00 | 0.00 | 82 | 1014.2 |
| 20260902040539 | 13 | 264 | 19.3 | 35.4 | 0.00 | 0.00 | 0.00 | 82 | 1014.2 |
| 20260902040054 | 13 | 275 | 16.1 | 35.4 | 0.00 | 0.00 | 0.00 | 81 | 1014.3 |
| 20260902035538 | 14 | 292 | 16.1 | 30.6 | 0.00 | 0.00 | 0.00 | 79 | 1014.2 |
| 20260902035038 | 14 | 298 | 16.1 | 33.8 | 0.00 | 0.00 | 0.00 | 78 | 1014.3 |
| 20260902034604 | 14 | 309 | 16.1 | 38.6 | 0.00 | 0.00 | 0.00 | 78 | 1014.4 |
| 20260902034038 | 14 | 252 | 19.3 | 38.6 | 0.00 | 0.00 | 0.00 | 77 | 1014.5 |
| 20260902033538 | 14 | 253 | 16.1 | 45.1 | 0.00 | 0.00 | 0.00 | 77 | 1014.6 |
| 20260902033104 | 14 | 244 | 24.1 | 45.1 | 0.00 | 0.00 | 0.00 | 77 | 1014.6 |
| 20260902032642 | 14 | 313 | 20.9 | 45.1 | 0.00 | 0.00 | 0.00 | 78 | 1014.6 |
| 20260902032039 | 14 | 277 | 19.3 | 43.5 | 0.00 | 0.00 | 0.00 | 77 | 1014.6 |
| 20260902031557 | 13 | 240 | 17.7 | 51.5 | 0.00 | 0.00 | 0.00 | 79 | 1014.5 |
| 20260902031040 | 13 | 273 | 16.1 | 51.5 | 0.00 | 0.00 | 0.00 | 80 | 1014.4 |
| 20260902030539 | 13 | 272 | 20.9 | 46.7 | 0.00 | 0.00 | 0.00 | 80 | 1014.4 |
| 20260902030046 | 13 | 333 | 17.7 | 46.7 | 0.00 | 0.00 | 0.00 | 83 | 1014.6 |
| 20260902025539 | 13 | 342 | 19.3 | 38.6 | 0.00 | 0.00 | 0.00 | 83 | 1014.6 |
| 20260902025039 | 13 | 307 | 19.3 | 35.4 | 0.00 | 0.00 | 0.00 | 82 | 1014.6 |
| 20260902024608 | 13 | 284 | 17.7 | 41.8 | 0.00 | 0.00 | 0.00 | 82 | 1014.5 |
| 20260902024041 | 14 | 262 | 20.9 | 41.8 | 0.00 | 0.00 | 0.00 | 81 | 1014.7 |
| 20260902023539 | 14 | 264 | 19.3 | 37.0 | 0.00 | 0.00 | 0.00 | 80 | 1014.6 |
| 20260902023058 | 14 | 275 | 12.9 | 35.4 | 0.00 | 0.00 | 0.00 | 82 | 1014.7 |
| 20260902022539 | 14 | 248 | 22.5 | 35.4 | 0.00 | 0.00 | 0.00 | 79 | 1014.6 |
| 20260902022036 | 14 | 283 | 22.5 | 32.2 | 0.00 | 0.00 | 0.00 | 79 | 1014.7 |
| 20260902021554 | 14 | 298 | 17.7 | 45.1 | 0.00 | 0.00 | 0.00 | 79 | 1014.7 |
| 20260902021037 | 14 | 251 | 20.9 | 45.1 | 0.00 | 0.00 | 0.00 | 78 | 1014.7 |
| 20260902020536 | 15 | 285 | 22.5 | 40.2 | 0.00 | 0.00 | 0.00 | 78 | 1014.7 |
| 20260902020051 | 15 | 314 | 20.9 | 38.6 | 0.00 | 0.00 | 0.00 | 78 | 1014.6 |
| 20260902015536 | 15 | 281 | 16.1 | 54.7 | 0.00 | 0.00 | 0.00 | 77 | 1014.7 |
| 20260902015042 | 14 | 291 | 20.9 | 54.7 | 0.00 | 0.00 | 0.00 | 74 | 1014.6 |
| 20260902014553 | 14 | 286 | 22.5 | 54.7 | 0.00 | 0.00 | 0.00 | 74 | 1014.9 |
| 20260902014037 | 14 | 260 | 20.9 | 40.2 | 0.00 | 0.00 | 0.00 | 79 | 1014.7 |
| 20260902013540 | 14 | 242 | 17.7 | 38.6 | 0.00 | 0.00 | 0.00 | 80 | 1014.7 |
| 20260902013058 | 14 | 311 | 17.7 | 40.2 | 0.00 | 0.00 | 0.00 | 79 | 1014.8 |
| 20260902012536 | 14 | 253 | 19.3 | 40.2 | 0.00 | 0.00 | 0.00 | 79 | 1014.7 |
| 20260902012036 | 14 | 281 | 25.7 | 40.2 | 0.00 | 0.00 | 0.00 | 78 | 1014.9 |
| 20260902011547 | 14 | 274 | 19.3 | 35.4 | 0.00 | 0.00 | 0.00 | 77 | 1014.8 |
| 20260902011037 | 14 | 291 | 19.3 | 35.4 | 0.00 | 0.00 | 0.00 | 77 | 1014.8 |
| 20260902010535 | 14 | 290 | 17.7 | 41.8 | 0.00 | 0.00 | 0.00 | 77 | 1015.0 |
| 20260902010053 | 14 | 252 | 20.9 | 41.8 | 0.00 | 0.00 | 0.00 | 75 | 1014.8 |
| 20260902005536 | 14 | 267 | 19.3 | 41.8 | 0.00 | 0.00 | 0.00 | 76 | 1014.8 |
| 20260902005037 | 15 | 236 | 17.7 | 38.6 | 0.00 | 0.00 | 0.00 | 77 | 1014.9 |
| 20260902004558 | 15 | 252 | 17.7 | 33.8 | 0.00 | 0.00 | 0.00 | 78 | 1015.0 |
| 20260902004036 | 14 | 267 | 17.7 | 33.8 | 0.00 | 0.00 | 0.00 | 77 | 1015.0 |
| 20260902003539 | 14 | 246 | 19.3 | 33.8 | 0.00 | 0.00 | 0.00 | 76 | 1015.2 |
| 20260902003053 | 14 | 231 | 19.3 | 33.8 | 0.00 | 0.00 | 0.00 | 76 | 1015.2 |
| 20260902002541 | 14 | 240 | 17.7 | 35.4 | 0.00 | 0.00 | 0.00 | 77 | 1015.2 |
| 20260902002035 | 14 | 252 | 22.5 | 41.8 | 0.00 | 0.00 | 0.00 | 76 | 1015.5 |
| 20260902001558 | 13 | 257 | 24.1 | 41.8 | 0.00 | 0.00 | 0.00 | 76 | 1015.6 |
| 20260902001038 | 14 | 249 | 17.7 | 37.0 | 0.00 | 0.00 | 0.00 | 76 | 1015.6 |
| 20260902000538 | 13 | 255 | 20.9 | 37.0 | 0.00 | 0.00 | 0.00 | 74 | 1015.8 |
| 20260901235538 | 13 | 241 | 20.9 | 35.4 | 0.00 | 0.00 | 0.00 | 75 | 1015.8 |
| 20260901235037 | 13 | 296 | 19.3 | 33.8 | 0.00 | 0.00 | 0.00 | 76 | 1015.7 |
| 20260901234554 | 13 | 305 | 17.7 | 40.2 | 0.00 | 0.00 | 0.00 | 77 | 1015.8 |
| 20260901234040 | 13 | 250 | 19.3 | 40.2 | 0.00 | 0.00 | 0.00 | 75 | 1015.8 |
| 20260901233544 | 13 | 304 | 17.7 | 32.2 | 0.00 | 0.00 | 0.00 | 77 | 1015.8 |
| 20260901233054 | 13 | 242 | 17.7 | 37.0 | 0.00 | 0.00 | 0.00 | 79 | 1015.8 |
| 20260901232536 | 13 | 246 | 19.3 | 37.0 | 0.00 | 0.00 | 0.00 | 77 | 1015.7 |
| 20260901232040 | 13 | 258 | 16.1 | 33.8 | 0.00 | 0.00 | 0.00 | 77 | 1015.6 |
| 20260901231548 | 13 | 248 | 16.1 | 33.8 | 0.00 | 0.00 | 0.00 | 78 | 1015.6 |
| 20260901231038 | 13 | 264 | 17.7 | 33.8 | 0.00 | 0.00 | 0.00 | 77 | 1015.6 |
| 20260901230536 | 13 | 281 | 17.7 | 35.4 | 0.00 | 0.00 | 0.00 | 77 | 1015.7 |
| 20260901230058 | 13 | 267 | 22.5 | 37.0 | 0.00 | 0.00 | 0.00 | 77 | 1015.6 |
| 20260901225535 | 14 | 240 | 16.1 | 37.0 | 0.00 | 0.00 | 0.00 | 80 | 1015.5 |
| 20260901225036 | 14 | 298 | 19.3 | 37.0 | 0.00 | 0.00 | 0.00 | 79 | 1015.6 |
| 20260901224555 | 13 | 246 | 19.3 | 40.2 | 0.00 | 0.00 | 0.00 | 79 | 1015.4 |
| 20260901224040 | 13 | 287 | 20.9 | 41.8 | 0.00 | 0.00 | 0.00 | 79 | 1015.5 |
| 20260901223538 | 13 | 281 | 22.5 | 41.8 | 0.00 | 0.00 | 0.00 | 79 | 1015.6 |
| 20260901223052 | 13 | 265 | 17.7 | 37.0 | 0.00 | 0.00 | 0.00 | 79 | 1015.5 |
| 20260901222536 | 13 | 309 | 22.5 | 37.0 | 0.00 | 0.00 | 0.00 | 78 | 1015.5 |
| 20260901222038 | 14 | 261 | 19.3 | 37.0 | 0.00 | 0.00 | 0.00 | 80 | 1015.4 |
| 20260901221549 | 13 | 265 | 17.7 | 37.0 | 0.00 | 0.00 | 0.00 | 78 | 1015.4 |
| 20260901221038 | 13 | 278 | 16.1 | 33.8 | 0.00 | 0.00 | 0.00 | 80 | 1015.4 |
| 20260901220536 | 13 | 248 | 19.3 | 33.8 | 0.00 | 0.00 | 0.00 | 79 | 1015.3 |
| 20260901220049 | 13 | 284 | 17.7 | 33.8 | 0.00 | 0.00 | 0.00 | 79 | 1015.4 |
| 20260901215539 | 13 | 263 | 20.9 | 33.8 | 0.00 | 0.00 | 0.00 | 80 | 1015.5 |
| 20260901215036 | 13 | 254 | 17.7 | 33.8 | 0.00 | 0.00 | 0.00 | 78 | 1015.4 |
| 20260901214555 | 13 | 254 | 16.1 | 33.8 | 0.00 | 0.00 | 0.00 | 78 | 1015.3 |
| 20260901214039 | 13 | 248 | 19.3 | 38.6 | 0.00 | 0.00 | 0.00 | 78 | 1015.2 |
| 20260901213536 | 13 | 278 | 20.9 | 38.6 | 0.00 | 0.00 | 0.00 | 78 | 1015.1 |
| 20260901213111 | 13 | 248 | 20.9 | 37.0 | 0.00 | 0.00 | 0.00 | 77 | 1015.1 |
| 20260901212536 | 13 | 286 | 17.7 | 32.2 | 0.00 | 0.00 | 0.00 | 79 | 1015.1 |
| 20260901212036 | 13 | 248 | 19.3 | 37.0 | 0.00 | 0.00 | 0.00 | 78 | 1015.2 |
| 20260901211557 | 13 | 339 | 16.1 | 40.2 | 0.00 | 0.00 | 0.00 | 80 | 1015.1 |
| 20260901211041 | 13 | 251 | 16.1 | 40.2 | 0.00 | 0.00 | 0.00 | 80 | 1014.9 |
| 20260901210541 | 13 | 269 | 17.7 | 38.6 | 0.00 | 0.00 | 0.00 | 80 | 1014.8 |
| 20260901210058 | 13 | 275 | 16.1 | 38.6 | 0.00 | 0.00 | 0.00 | 80 | 1014.7 |
| 20260901205537 | 13 | 246 | 17.7 | 33.8 | 0.00 | 0.00 | 0.00 | 80 | 1014.7 |
| 20260901205039 | 13 | 244 | 16.1 | 33.8 | 0.00 | 0.00 | 0.00 | 81 | 1014.8 |
| 20260901204555 | 13 | 246 | 19.3 | 33.8 | 0.00 | 0.00 | 0.00 | 81 | 1014.8 |
| 20260901204039 | 13 | 234 | 17.7 | 33.8 | 0.00 | 0.00 | 0.00 | 82 | 1014.9 |
| 20260901203539 | 13 | 237 | 14.5 | 35.4 | 0.00 | 0.00 | 0.00 | 83 | 1014.8 |
| 20260901203052 | 13 | 247 | 14.5 | 35.4 | 0.00 | 0.00 | 0.00 | 83 | 1014.6 |
| 20260901202540 | 13 | 292 | 17.7 | 35.4 | 0.00 | 0.00 | 0.00 | 83 | 1014.6 |
| 20260901202039 | 12 | 252 | 20.9 | 33.8 | 0.00 | 0.00 | 0.00 | 83 | 1014.5 |
| 20260901201603 | 12 | 242 | 12.9 | 27.4 | 0.00 | 0.00 | 0.00 | 84 | 1014.5 |
| 20260901201039 | 12 | 286 | 16.1 | 27.4 | 0.00 | 0.00 | 0.00 | 83 | 1014.5 |
| 20260901200539 | 12 | 272 | 11.3 | 30.6 | 0.00 | 0.00 | 0.00 | 84 | 1014.5 |
| 20260901200057 | 12 | 286 | 14.5 | 32.2 | 0.00 | 0.00 | 0.00 | 83 | 1014.6 |
| 20260901195539 | 12 | 288 | 16.1 | 32.2 | 0.00 | 0.00 | 0.00 | 83 | 1014.6 |
| 20260901195041 | 12 | 243 | 17.7 | 32.2 | 0.00 | 0.00 | 0.00 | 83 | 1014.6 |
| 20260901194559 | 12 | 287 | 16.1 | 27.4 | 0.00 | 0.00 | 0.00 | 84 | 1014.6 |
| 20260901194036 | 12 | 286 | 11.3 | 22.5 | 0.00 | 0.00 | 0.00 | 85 | 1014.5 |
| 20260901193539 | 12 | 285 | 6.4 | 25.7 | 0.00 | 0.00 | 0.00 | 85 | 1014.5 |
| 20260901193054 | 12 | 254 | 9.7 | 27.4 | 0.00 | 0.00 | 0.00 | 84 | 1014.5 |
| 20260901192537 | 12 | 245 | 14.5 | 27.4 | 0.00 | 0.00 | 0.00 | 85 | 1014.5 |
| 20260901192039 | 11 | 293 | 11.3 | 25.7 | 0.00 | 0.00 | 0.00 | 85 | 1014.5 |
| 20260901191549 | 12 | 299 | 9.7 | 25.7 | 0.00 | 0.00 | 0.00 | 86 | 1014.5 |
| 20260901191035 | 12 | 302 | 9.7 | 20.9 | 0.00 | 0.00 | 0.00 | 86 | 1014.3 |
| 20260901190538 | 12 | 251 | 11.3 | 20.9 | 0.00 | 0.00 | 0.00 | 86 | 1014.4 |
| 20260901190050 | 12 | 245 | 12.9 | 20.9 | 0.00 | 0.00 | 0.00 | 86 | 1014.4 |
| 20260901185540 | 12 | 252 | 11.3 | 19.3 | 0.00 | 0.00 | 0.00 | 86 | 1014.4 |
| 20260901185038 | 12 | 253 | 9.7 | 25.7 | 0.00 | 0.00 | 0.00 | 86 | 1014.4 |
| 20260901184552 | 12 | 236 | 11.3 | 25.7 | 0.00 | 0.00 | 0.00 | 86 | 1014.3 |
| 20260901184039 | 12 | 235 | 11.3 | 27.4 | 0.00 | 0.00 | 0.00 | 86 | 1014.3 |
| 20260901183538 | 12 | 244 | 11.3 | 27.4 | 0.00 | 0.00 | 0.00 | 86 | 1014.5 |
| 20260901183051 | 11 | 302 | 11.3 | 20.9 | 0.00 | 0.00 | 0.00 | 86 | 1014.4 |
| 20260901182539 | 12 | 247 | 6.4 | 25.7 | 0.00 | 0.00 | 0.00 | 86 | 1014.2 |
| 20260901182036 | 12 | 292 | 9.7 | 32.2 | 0.00 | 0.00 | 0.00 | 85 | 1014.3 |
| 20260901181547 | 12 | 274 | 17.7 | 32.2 | 0.00 | 0.00 | 0.00 | 85 | 1014.2 |
| 20260901181036 | 11 | 265 | 16.1 | 32.2 | 0.00 | 0.00 | 0.00 | 86 | 1014.2 |
| 20260901180535 | 11 | 248 | 17.7 | 32.2 | 0.00 | 0.00 | 0.00 | 86 | 1014.1 |
| 20260901180058 | 11 | 295 | 12.9 | 30.6 | 0.00 | 0.00 | 0.00 | 85 | 1013.9 |
| 20260901175539 | 11 | 234 | 14.5 | 30.6 | 0.00 | 0.00 | 0.00 | 85 | 1013.8 |
| 20260901175041 | 11 | 311 | 16.1 | 29.0 | 0.00 | 0.00 | 0.00 | 85 | 1013.8 |
| 20260901174551 | 11 | 251 | 14.5 | 27.4 | 0.00 | 0.00 | 0.00 | 85 | 1013.8 |
| 20260901174038 | 11 | 280 | 9.7 | 27.4 | 0.00 | 0.00 | 0.00 | 85 | 1013.9 |
| 20260901173540 | 11 | 259 | 8.0 | 24.1 | 0.00 | 0.00 | 0.00 | 85 | 1014.0 |
| 20260901173048 | 11 | 264 | 11.3 | 27.4 | 0.00 | 0.00 | 0.00 | 85 | 1013.9 |
| 20260901172539 | 11 | 287 | 14.5 | 29.0 | 0.00 | 0.00 | 0.00 | 85 | 1013.9 |
| 20260901172039 | 11 | 259 | 16.1 | 29.0 | 0.00 | 0.00 | 0.00 | 85 | 1013.9 |
| 20260901171606 | 11 | 294 | 9.7 | 25.7 | 0.00 | 0.00 | 0.00 | 85 | 1013.9 |
| 20260901171040 | 11 | 276 | 12.9 | 37.0 | 0.00 | 0.00 | 0.00 | 84 | 1013.8 |
| 20260901170539 | 11 | 292 | 14.5 | 37.0 | 0.00 | 0.00 | 0.00 | 84 | 1013.8 |
| 20260901170055 | 11 | 291 | 16.1 | 32.2 | 0.00 | 0.00 | 0.00 | 85 | 1013.8 |
| 20260901165539 | 11 | 257 | 12.9 | 27.4 | 0.00 | 0.00 | 0.00 | 85 | 1013.7 |
| 20260901165040 | 11 | 304 | 9.7 | 24.1 | 0.00 | 0.00 | 0.00 | 86 | 1013.8 |
| 20260901164558 | 11 | 288 | 11.3 | 24.1 | 0.00 | 0.00 | 0.00 | 86 | 1013.7 |
| 20260901164038 | 11 | 318 | 11.3 | 24.1 | 0.00 | 0.00 | 0.00 | 86 | 1013.7 |
| 20260901163539 | 11 | 276 | 11.3 | 24.1 | 0.00 | 0.00 | 0.00 | 86 | 1013.8 |
| 20260901163053 | 11 | 248 | 11.3 | 24.1 | 0.00 | 0.00 | 0.00 | 86 | 1013.7 |
| 20260901162542 | 11 | 273 | 11.3 | 24.1 | 0.00 | 0.00 | 0.00 | 86 | 1013.7 |
| 20260901162038 | 11 | 279 | 11.3 | 24.1 | 0.00 | 0.00 | 0.00 | 86 | 1013.8 |
| 20260901161553 | 11 | 255 | 9.7 | 22.5 | 0.00 | 0.00 | 0.00 | 85 | 1013.8 |
| 20260901161036 | 11 | 248 | 14.5 | 32.2 | 0.00 | 0.00 | 0.00 | 85 | 1013.8 |
| 20260901160539 | 11 | 263 | 11.3 | 32.2 | 0.00 | 0.00 | 0.00 | 85 | 1013.7 |
| 20260901160049 | 11 | 298 | 11.3 | 24.1 | 0.00 | 0.00 | 0.00 | 85 | 1013.7 |
| 20260901155536 | 11 | 227 | 14.5 | 29.0 | 0.00 | 0.00 | 0.00 | 85 | 1013.6 |
| 20260901155036 | 11 | 257 | 16.1 | 29.0 | 0.00 | 0.00 | 0.00 | 84 | 1013.5 |
| 20260901154546 | 11 | 269 | 14.5 | 27.4 | 0.00 | 0.00 | 0.00 | 84 | 1013.5 |
| 20260901154036 | 11 | 291 | 14.5 | 27.4 | 0.00 | 0.00 | 0.00 | 84 | 1013.3 |